Wind_Speed
39 39 40 40 40 40 41 41 41 41 41 41 41 42 42 42 43 43 43 44 44 43 43 43 42 42 41 41 41 41 41 39 38 36 36 38 40 41 42 42 41 40 39
39 40 41 41 42 42 42 42 42 41 41 41 41 41 41 42 43 44 45 46 47 47 47 47 47 47 47 46 45 43 43 42 41 39 38 40 42 44 44 44 43 42 41
41 41 42 43 43 44 43 43 42 41 41 41 41 41 41 43 44 45 47 48 49 49 50 51 51 51 51 51 50 49 47 45 43 43 42 42 44 46 47 47 46 44 43
42 43 43 44 44 44 43 42 41 41 40 40 40 41 42 43 45 46 48 49 50 51 52 52 53 54 54 55 54 54 52 50 48 46 46 44 46 48 49 48 47 46 44
44 44 45 45 45 44 43 42 41 40 40 40 41 42 43 44 45 46 47 48 50 51 52 53 54 55 56 57 57 58 57 55 53 50 49 48 47 49 49 50 50 48 47
45 46 46 46 45 44 43 42 41 40 40 41 42 42 42 43 44 45 46 47 48 49 50 51 53 54 55 58 59 61 61 60 58 56 54 53 50 50 50 51 52 50 48
46 47 47 46 45 44 43 42 40 40 41 42 41 41 41 42 43 43 43 44 44 45 47 49 50 51 52 56 59 62 64 63 62 60 58 57 54 52 52 52 53 53 51
47 48 48 47 46 44 43 41 41 41 41 41 40 40 40 40 40 40 40 40 41 41 43 45 46 48 49 52 57 60 63 65 64 63 62 60 59 55 54 53 53 53 53
48 48 48 47 46 44 42 41 41 41 40 40 39 39 39 38 38 37 37 36 36 37 38 40 42 43 46 49 53 57 61 65 67 66 66 65 64 60 57 56 55 54 53
48 49 49 48 46 44 42 42 41 40 39 39 38 38 37 36 34 33 33 32 32 32 33 34 36 39 42 46 49 53 58 63 66 68 68 67 66 64 61 58 56 54 52
48 49 49 48 46 44 42 42 41 40 39 38 37 37 35 33 31 30 29 27 26 26 26 27 30 33 37 42 46 49 54 60 64 67 69 69 68 67 63 59 57 56 53
48 49 49 48 46 44 43 41 41 40 38 37 37 35 33 31 29 27 26 23 21 20 19 20 23 28 33 37 42 44 49 56 61 64 66 68 68 67 65 61 58 57 55
48 49 48 48 46 44 42 41 41 39 37 36 35 33 31 29 27 24 22 19 18 16 14 14 17 22 27 33 38 41 44 50 55 59 63 65 67 67 65 63 59 56 55
49 49 48 47 46 44 42 41 40 38 36 35 33 31 29 27 24 21 18 17 14 11 8 8 12 17 23 29 35 39 42 46 50 54 59 62 65 66 65 63 60 57 54
49 49 48 47 45 43 41 40 40 38 36 34 32 29 27 25 22 19 16 14 11 7 6 6 9 14 20 25 30 35 38 42 46 50 55 58 61 63 63 62 60 58 54
48 48 47 46 45 43 40 40 39 37 36 34 31 28 27 23 20 17 14 11 8 6 5 5 8 12 17 22 28 32 36 39 43 47 51 54 57 60 60 59 58 56 54
47 47 46 45 44 42 39 38 37 35 35 33 30 27 25 22 19 15 12 10 7 4 3 4 7 11 15 20 24 28 32 37 40 44 47 50 53 56 57 57 56 55 52
46 46 45 44 43 40 38 37 35 33 33 32 30 27 24 21 18 15 11 9 6 3 2 4 6 10 13 17 22 26 30 34 38 42 44 47 51 53 55 55 55 55 51
45 44 44 43 41 39 36 35 34 32 31 31 29 26 23 20 17 15 12 8 5 4 4 5 7 10 13 16 20 24 28 31 35 38 42 46 49 51 53 54 54 54 51
45 43 42 41 40 37 35 33 32 31 30 30 28 25 22 19 16 14 11 8 5 4 5 7 8 10 12 15 18 22 26 30 33 35 40 45 48 49 51 53 53 52 51
43 41 40 39 38 36 33 31 30 29 28 28 27 25 22 19 16 14 11 9 6 4 5 6 8 10 12 15 17 21 24 27 30 33 37 42 46 48 50 52 52 52 52
41 39 38 37 35 34 31 30 28 27 27 27 26 24 22 19 16 14 11 9 6 5 5 7 8 10 11 13 16 19 22 25 28 31 35 39 44 47 50 52 52 52 51
39 37 35 34 33 31 29 28 27 26 25 24 24 23 21 19 17 14 11 9 7 5 4 6 8 10 11 13 16 18 20 24 26 29 33 37 41 45 48 50 51 50 49
37 34 33 32 31 29 27 25 24 24 23 22 22 22 21 20 17 13 11 9 7 4 3 4 7 10 11 13 15 17 19 23 25 28 30 34 39 43 46 48 49 48 47
34 33 31 30 28 27 25 23 22 21 21 20 20 21 20 19 18 15 12 9 5 2 2 3 5 8 11 13 15 17 19 22 25 28 30 33 37 41 44 45 46 47 47
33 31 29 28 26 24 22 20 19 19 18 18 19 20 19 18 18 16 14 10 5 3 2 3 5 6 9 11 13 16 18 21 23 26 29 32 36 39 41 43 44 46 46
Wind_Direction
322 320 318 316 313 311 308 305 302 299 295 291 287 284 282 280 278 276 273 269 266 263 260 257 253 250 247 243 240 237 234 232 229 226 223 219 213 211 211 212 212 213 211
325 324 322 320 317 314 311 308 305 301 297 293 289 286 283 281 279 277 274 271 268 265 261 257 254 251 247 244 241 238 234 232 229 225 222 219 214 211 211 212 212 212 211
329 327 325 322 319 316 313 310 307 303 300 296 293 289 286 284 282 279 276 273 270 266 262 258 254 251 247 243 240 238 234 231 228 225 222 219 215 213 212 212 212 212 211
331 329 327 325 322 318 315 312 309 305 302 299 296 293 290 287 284 281 278 274 271 268 264 260 255 251 247 243 239 236 234 231 228 224 220 217 215 214 213 213 212 212 212
333 331 329 327 324 321 318 315 311 308 305 302 300 297 294 291 288 284 280 276 273 269 265 260 256 251 246 243 239 235 232 230 227 224 220 217 216 214 213 213 212 212 212
334 333 331 329 326 323 320 317 314 310 308 306 304 301 298 295 292 288 283 279 275 270 266 262 257 252 247 242 237 233 230 228 227 225 221 218 216 215 214 213 212 212 212
335 334 333 330 327 325 322 319 316 314 312 310 307 305 302 299 296 292 288 283 277 272 267 262 257 252 246 240 235 231 228 226 225 224 222 219 216 215 215 213 211 212 212
336 335 334 332 329 326 323 321 319 317 315 313 311 309 306 303 299 296 292 287 281 275 268 262 256 250 244 237 231 228 225 223 222 221 220 218 215 214 213 213 212 212 212
337 336 335 333 331 328 325 323 322 320 318 317 315 313 310 306 303 299 295 290 284 277 270 263 255 247 240 234 228 224 222 220 219 219 218 216 214 212 213 212 211 211 212
337 337 336 334 332 330 327 326 325 324 322 320 318 317 314 311 308 304 299 294 287 280 272 263 253 244 235 229 224 221 219 217 216 216 216 215 214 212 212 212 212 211 211
337 337 336 335 333 332 330 328 328 327 325 323 322 320 317 314 312 309 306 301 295 287 276 262 249 238 229 224 220 217 216 215 214 214 214 213 212 212 212 212 213 213 212
337 337 336 336 335 333 332 331 330 330 328 326 325 324 321 319 317 314 311 307 303 296 281 261 245 233 224 218 215 214 213 212 212 212 212 212 211 211 212 212 212 212 213
337 338 337 336 336 335 334 334 333 332 331 330 329 328 325 324 322 320 317 314 309 299 285 262 238 223 214 211 209 209 209 209 210 210 210 210 211 211 211 211 211 211 212
337 338 337 337 336 336 335 336 336 335 334 333 332 331 329 328 327 326 324 322 316 304 288 253 223 213 208 205 204 203 204 206 207 208 208 209 210 210 210 210 211 211 211
337 338 338 337 337 337 336 337 338 337 336 335 334 333 333 332 331 331 329 327 320 306 281 241 213 201 199 201 201 199 201 203 204 205 207 207 208 209 210 210 212 212 212
336 337 337 337 337 337 337 338 339 339 339 338 336 335 335 335 334 333 333 330 322 306 276 235 209 200 198 198 199 199 200 201 203 204 205 206 206 208 209 210 210 211 211
334 335 336 337 337 337 338 339 341 341 342 341 341 339 339 337 336 334 330 331 327 308 264 218 202 200 198 198 199 200 200 200 201 202 202 203 204 206 207 208 208 208 210
331 333 334 336 336 337 338 340 342 344 346 346 344 343 343 343 341 338 330 323 320 307 249 210 200 198 197 196 198 199 199 199 200 200 201 201 202 203 205 204 205 206 208
328 331 333 334 336 337 338 340 342 344 346 348 347 347 346 345 344 344 339 325 304 272 244 222 209 203 200 200 199 199 200 201 202 201 201 200 200 201 202 203 202 203 204
325 328 331 332 334 335 337 339 342 344 346 348 349 349 347 346 346 344 343 335 310 273 247 230 218 212 209 205 202 199 199 200 202 202 201 200 199 199 200 201 202 201 201
322 325 328 330 332 334 335 338 341 344 346 349 351 351 351 348 345 342 340 334 317 278 249 232 220 214 210 206 204 201 200 201 202 202 201 200 199 198 198 199 200 201 202
319 322 325 327 330 332 334 337 340 343 346 350 353 353 354 354 350 346 340 333 322 298 257 235 224 213 207 205 203 201 202 201 201 201 201 200 198 197 197 197 198 199 201
316 319 322 325 327 330 332 335 340 343 346 350 354 356 355 354 351 348 343 335 324 308 271 233 218 212 207 204 201 200 201 200 200 201 202 201 199 198 197 197 198 199 201
314 316 319 322 325 327 330 334 339 343 347 351 354 356 358 358 354 351 346 337 328 306 266 233 214 210 209 206 203 201 199 199 200 199 200 199 198 196 196 196 197 198 199
312 313 316 319 323 325 327 331 337 343 348 352 355 357 358 357 356 354 350 345 334 306 251 217 209 209 206 207 206 203 200 198 198 197 198 198 197 196 196 196 197 197 197
310 312 314 317 320 323 325 328 335 341 347 353 357 359 1 1 2 1 0 0 351 317 264 216 210 208 201 199 199 197 196 195 195 196 196 196 196 196 196 196 196 197 198
Height
5765 5759 5753 5746 5740 5734 5729 5723 5718 5713 5708 5704 5700 5697 5694 5692 5691 5690 5690 5691 5693 5694 5697 5700 5703 5706 5710 5714 5718 5722 5727 5732 5738 5743 5747 5752 5758 5764 5771 5777 5783 5789 5795
5757 5750 5744 5737 5731 5724 5718 5712 5706 5701 5696 5691 5688 5684 5681 5679 5677 5676 5675 5675 5676 5678 5680 5683 5687 5690 5695 5700 5705 5710 5716 5721 5727 5733 5738 5743 5749 5755 5762 5769 5775 5781 5788
5750 5743 5735 5728 5721 5714 5707 5700 5694 5689 5683 5679 5675 5671 5668 5665 5663 5661 5659 5659 5659 5660 5662 5666 5669 5673 5679 5684 5690 5696 5702 5709 5715 5722 5727 5733 5740 5746 5753 5760 5767 5774 5781
5743 5735 5728 5720 5712 5704 5697 5690 5683 5677 5672 5667 5662 5658 5654 5651 5648 5645 5642 5641 5641 5641 5643 5646 5649 5654 5660 5666 5673 5681 5688 5695 5703 5710 5716 5722 5729 5736 5743 5751 5758 5766 5773
5736 5728 5720 5711 5703 5695 5687 5680 5673 5667 5661 5655 5650 5645 5640 5636 5632 5628 5625 5623 5622 5621 5622 5624 5628 5633 5639 5646 5654 5663 5671 5680 5688 5696 5704 5711 5718 5725 5733 5741 5749 5757 5764
5729 5720 5712 5703 5694 5685 5678 5670 5663 5656 5650 5643 5637 5632 5626 5620 5615 5611 5607 5605 5603 5602 5602 5603 5606 5611 5617 5625 5633 5643 5653 5663 5673 5682 5691 5699 5707 5715 5723 5731 5740 5748 5757
5721 5712 5703 5694 5685 5677 5668 5660 5653 5646 5639 5632 5625 5618 5612 5606 5600 5595 5590 5587 5584 5582 5582 5583 5585 5590 5595 5603 5612 5622 5633 5644 5656 5667 5676 5687 5696 5704 5713 5721 5729 5738 5747
5714 5705 5695 5686 5677 5668 5659 5651 5643 5636 5628 5620 5613 5606 5599 5592 5586 5580 5575 5570 5567 5565 5564 5564 5566 5570 5575 5583 5591 5602 5613 5626 5639 5651 5663 5672 5682 5691 5701 5710 5719 5727 5736
5707 5697 5688 5678 5669 5660 5651 5642 5634 5626 5617 5609 5602 5594 5587 5580 5573 5567 5561 5556 5552 5549 5547 5547 5548 5552 5557 5564 5573 5585 5596 5608 5619 5632 5645 5656 5668 5678 5688 5697 5707 5716 5726
5699 5690 5680 5670 5661 5652 5642 5634 5625 5616 5608 5599 5592 5584 5576 5569 5562 5555 5548 5543 5539 5535 5532 5531 5533 5536 5541 5547 5557 5568 5579 5591 5603 5616 5629 5641 5654 5665 5676 5687 5697 5707 5716
5692 5682 5672 5662 5653 5643 5634 5625 5616 5608 5599 5590 5582 5574 5566 5559 5552 5545 5538 5532 5528 5523 5520 5519 5520 5523 5528 5535 5544 5555 5565 5576 5587 5600 5613 5627 5640 5652 5664 5676 5687 5697 5707
5685 5675 5665 5655 5645 5636 5626 5617 5608 5599 5590 5582 5574 5565 5557 5550 5543 5537 5530 5525 5520 5516 5512 5510 5511 5513 5518 5525 5534 5544 5553 5564 5575 5587 5600 5614 5627 5640 5653 5664 5676 5686 5697
5678 5668 5658 5647 5637 5628 5619 5610 5601 5591 5583 5575 5566 5558 5550 5543 5537 5530 5525 5520 5515 5511 5507 5505 5506 5508 5512 5519 5527 5535 5544 5554 5565 5577 5590 5603 5615 5628 5640 5652 5664 5674 5685
5671 5661 5651 5641 5631 5621 5612 5603 5594 5585 5576 5568 5560 5552 5545 5538 5531 5526 5521 5516 5512 5508 5505 5503 5503 5505 5509 5514 5521 5529 5538 5548 5558 5568 5579 5591 5603 5616 5629 5642 5653 5664 5675
5664 5655 5645 5635 5625 5616 5606 5597 5588 5579 5570 5563 5555 5547 5540 5534 5528 5522 5518 5514 5510 5507 5505 5503 5504 5505 5508 5513 5519 5526 5534 5543 5552 5561 5571 5582 5595 5607 5619 5632 5644 5655 5666
5659 5649 5639 5630 5620 5611 5602 5592 5583 5574 5566 5557 5550 5543 5536 5530 5525 5520 5516 5512 5509 5507 5505 5504 5505 5506 5509 5512 5518 5524 5531 5539 5547 5556 5565 5575 5587 5598 5610 5622 5634 5646 5657
5652 5644 5634 5625 5616 5606 5597 5589 5580 5571 5562 5554 5546 5539 5533 5528 5523 5519 5515 5512 5509 5508 5506 5506 5506 5508 5510 5513 5517 5523 5529 5535 5543 5551 5560 5570 5580 5591 5603 5614 5626 5638 5648
5646 5637 5629 5620 5611 5602 5593 5585 5576 5568 5560 5552 5544 5537 5531 5526 5521 5517 5514 5511 5509 5508 5508 5507 5508 5509 5511 5514 5517 5522 5527 5533 5540 5547 5556 5565 5575 5585 5596 5607 5619 5630 5641
5639 5631 5623 5614 5606 5598 5589 5581 5573 5565 5558 5550 5542 5535 5530 5524 5520 5516 5513 5511 5509 5508 5508 5508 5509 5510 5512 5514 5517 5521 5526 5531 5537 5544 5552 5560 5569 5579 5590 5600 5611 5622 5633
5632 5625 5617 5610 5602 5594 5586 5578 5571 5563 5556 5548 5541 5534 5528 5523 5519 5516 5513 5510 5508 5508 5507 5508 5508 5510 5512 5514 5517 5520 5525 5529 5535 5541 5548 5555 5564 5573 5583 5594 5605 5616 5626
5625 5618 5611 5604 5597 5590 5582 5575 5568 5561 5554 5547 5540 5533 5527 5522 5518 5515 5512 5509 5507 5506 5506 5506 5507 5509 5510 5513 5516 5519 5523 5528 5533 5538 5544 5551 5559 5568 5578 5588 5599 5609 5618
5618 5612 5606 5599 5593 5586 5579 5572 5565 5559 5552 5545 5539 5533 5527 5522 5517 5514 5511 5508 5506 5505 5505 5505 5506 5507 5509 5511 5514 5517 5521 5526 5531 5536 5541 5548 5556 5564 5573 5583 5593 5602 5612
5611 5606 5600 5594 5588 5582 5575 5569 5563 5557 5550 5544 5538 5532 5526 5521 5517 5513 5510 5507 5505 5504 5503 5503 5504 5506 5507 5510 5512 5515 5519 5524 5528 5533 5539 5545 5552 5560 5568 5578 5587 5597 5607
5604 5599 5594 5589 5583 5578 5572 5566 5561 5555 5549 5543 5537 5532 5526 5521 5516 5512 5509 5506 5504 5502 5502 5502 5502 5503 5505 5508 5510 5513 5517 5521 5526 5531 5536 5542 5549 5557 5565 5574 5583 5592 5602
5597 5592 5588 5583 5578 5573 5568 5563 5558 5553 5548 5542 5537 5531 5526 5521 5516 5512 5508 5505 5503 5501 5501 5501 5501 5502 5503 5505 5508 5511 5514 5518 5523 5528 5533 5540 5546 5554 5562 5570 5579 5588 5597
5590 5586 5582 5578 5574 5569 5565 5561 5556 5552 5547 5542 5537 5532 5527 5522 5517 5512 5508 5504 5502 5501 5500 5500 5500 5501 5502 5503 5506 5509 5512 5516 5520 5525 5531 5537 5544 5551 5559 5567 5576 5585 5593